Regional Weather Roundup
Issued by NWS Albany, NY

Home | Current Version | Previous Version | Graphics & Text | Print | Product List | Glossary Off
Versions: 1 2 3 4 5 6 7 8 9 10 11 12 13 14 15 16 17 18 19 20 21 22 23 24 25 26 27 28 29 30 31 32 33 34 35 36 37 38 39 40 41 42 43 44 45 46 47 48 49 50

000
ASUS41 KALY 250310
RWRALY

NEW YORK STATE HOURLY WEATHER ROUNDUP
NATIONAL WEATHER SERVICE ALBANY NY
1100 PM EDT THU JUL 24 2014

NOTE: "FAIR" INDICATES FEW OR NO CLOUDS BELOW 12,000 FEET WITH NO
SIGNIFICANT WEATHER AND/OR NO OBSTRUCTIONS TO VISIBILITY.

NYZ032-033-038>043-046>054-057>066-NYZ062>081-250400-
EAST


CITY           SKY/WX    TMP DP  RH WIND       PRES   REMARKS
ALBANY         MOCLDY    67  53  61 N6        29.94R
GLENS FALLS    CLEAR     61  55  81 N3        29.94R
POUGHKEEPSIE   MOCLDY    64  60  87 CALM      29.92R
NEWBURGH       CLEAR     64  59  82 CALM      29.94
MONTGOMERY     PTCLDY    65  53  65 NW6       29.93R
WHITE PLAINS   CLOUDY    66  57  72 NW7       29.91R
ISLIP          MOCLDY    73  58  59 N7        29.88R
NEW YORK CITY  CLOUDY    75  56  51 N10       29.90R
CENTRAL PARK   CLOUDY    74  56  53 CALM      29.94R
$$

NYZ005>009-017-018-044>046-055-056-250400-
CENTRAL


CITY           SKY/WX    TMP DP  RH WIND       PRES   REMARKS
FULTON         CLEAR     57  53  86 CALM      30.00R
SYRACUSE       PTCLDY    62  52  69 W5        30.00R
ROME           CLEAR     58  52  80 CALM      30.00R
ELMIRA         CLEAR     52  50  93 CALM      30.02R
BINGHAMTON     CLEAR     57  48  72 NW6       30.01R
MONTICELLO     PTCLDY    57  52  82 NW6       29.99R
$$

NYZ026>034-041>043-250400-
NORTH


CITY           SKY/WX    TMP DP  RH WIND       PRES   REMARKS
WATERTOWN      CLEAR     60  53  77 S5        29.98R
FORT DRUM      NOT AVBL
MASSENA        CLEAR     57  53  86 SW6       29.94R
SARANAC LAKE   CLEAR     47  46  97 CALM      29.97R
PLATTSBURGH    PTCLDY    60  51  72 CALM      29.92S
$$

NYZ001>004-010>016-019>021-250400-
WEST


CITY           SKY/WX    TMP DP  RH WIND       PRES   REMARKS
NIAGARA FALLS  CLEAR     61  49  64 CALM      30.03R
BUFFALO        PTCLDY    64  49  57 S5        30.04R
DUNKIRK        CLEAR     54  50  86 S5        30.06R
JAMESTOWN      CLEAR     55  39  54 CALM      30.08R
WELLSVILLE     CLEAR     54  43  66 NW5       30.08R
ROCHESTER      CLEAR     59  53  80 SW3       30.02R
PENN YAN       CLEAR     55  51  86 W3        30.03R
$$

             KEY
       WCI = WIND CHILL INDEX
       VSB = VISIBILITY
       HX  = HEAT INDEX
$$


USA.gov is the U.S. government's official web portal to all federal, state and local government web resources and services.